Dalhart, TX

6:56 PM CDT on April 26, 2017 (GMT -0500)
Dalhart Municipal

Weather History for KDHT - August, 2013

Change the Weather History Date:

Sunday, August 11, 2013

  Actual Average Record
Temperature  
Mean Temperature 73 °F 76 °F  
Max Temperature 80 °F 90 °F 106 °F (2012)
Min Temperature 65 °F 62 °F 50 °F (1979)
Degree Days  
Heating Degree Days 0 0  
Month to date heating degree days 0 0  
Since 1 June heating degree days 0 13  
Since 1 July heating degree days 0 1  
Cooling Degree Days 8 11  
Month to date cooling degree days 143 122  
Year to date cooling degree days 1106 799  
Since 1 June cooling degree days 952 727  
Growing Degree Days 23 (Base 50)    
Moisture  
Dew Point 59 °F    
Average Humidity 62    
Maximum Humidity 81    
Minimum Humidity 42    
Precipitation  
Precipitation T in 0.10 in 1.42 in (1981)
Month to date precipitation 0.46 1.21  
Year to date precipitation 3.92 11.71  
Snow  
Snow 0.00 in 0.00 in 0.00 in ()
Month to date snowfall 0.0 0.0  
Since 1 June snowfall 0.0 0.0  
Since 1 July snowfall 0.0 0.0  
Snow Depth 0.00 in    
Sea Level Pressure  
Sea Level Pressure 30.03 in    
Wind  
Wind Speed 12 mph (SSW)    
Max Wind Speed 28 mph    
Max Gust Speed 33 mph    
Visibility 10 miles    
Events Rain    
T = Trace of Precipitation, MM = Missing Value Source: NWS Daily Summary

Daily Weather History Graph

Daily Weather History Graph

Search for Another Location

Airport or City:

Trip Planner

Search our weather history database for the weather conditions in past years. The results will help you decide how hot, cold, wet, or windy it might be!

Date:

Astronomy

Aug. 11, 2013 Rise Set
Actual Time 7:05 AM CDT 8:44 PM CDT
Civil Twilight 6:38 AM CDT 9:11 PM CDT
Nautical Twilight 6:05 AM CDT 9:44 PM CDT
Astronomical Twilight 5:30 AM CDT 10:19 PM CDT
Moon 11:44 AM CDT (8/11) 11:13 PM CDT (8/11)
Length of Visible Light 14h 33m
Length of Day
13h 38m
Waxing Crescent, 22% of the Moon is Illuminated
Aug 11
Waxing Crescent
Aug 14
First Quarter
Aug 20
Full
Aug 28
Last Quarter
Sep 5
New

Hourly Weather History & Observations

Time (CDT) Temp. Heat Index Dew Point Humidity Pressure Visibility Wind Dir Wind Speed Gust Speed Precip Events Conditions
12:53 AM 71.1 °F - 62.1 °F 73% 30.05 in 10.0 mi SSE 10.4 mph - N/A   Clear
1:53 AM 68.0 °F - 62.1 °F 81% 30.06 in 10.0 mi SSW 5.8 mph - N/A   Partly Cloudy
2:53 AM 69.1 °F - 61.0 °F 75% 30.03 in 10.0 mi SSE 11.5 mph - N/A   Clear
3:53 AM 68.0 °F - 61.0 °F 78% 30.02 in 10.0 mi SSE 11.5 mph - N/A   Clear
4:53 AM 66.9 °F - 60.1 °F 79% 30.01 in 10.0 mi South 10.4 mph - N/A   Clear
5:53 AM 66.9 °F - 60.1 °F 79% 30.00 in 10.0 mi South 9.2 mph - N/A   Clear
6:53 AM 66.0 °F - 61.0 °F 84% 30.01 in 10.0 mi South 8.1 mph - N/A   Clear
7:53 AM 66.9 °F - 61.0 °F 81% 30.04 in 10.0 mi SSW 9.2 mph - N/A   Clear
8:53 AM 70.0 °F - 57.9 °F 65% 30.07 in 10.0 mi WSW 10.4 mph - N/A   Clear
9:53 AM 72.0 °F - 60.1 °F 66% 30.07 in 10.0 mi WSW 15.0 mph - N/A   Clear
10:53 AM 73.9 °F - 57.0 °F 55% 30.08 in 10.0 mi SW 17.3 mph 25.3 mph N/A   Clear
11:53 AM 79.0 °F - 55.9 °F 45% 30.06 in 10.0 mi SW 21.9 mph 29.9 mph N/A   Clear
12:53 PM 80.1 °F 80.2 °F 55.9 °F 43% 30.05 in 10.0 mi SW 21.9 mph 28.8 mph N/A   Partly Cloudy
1:53 PM 78.1 °F - 55.9 °F 46% 30.06 in 10.0 mi SW 26.5 mph 32.2 mph N/A   Clear
2:53 PM 75.9 °F - 54.0 °F 46% 30.05 in 10.0 mi SW 23.0 mph 28.8 mph N/A   Clear
3:53 PM 70.0 °F - 57.0 °F 63% 30.06 in 10.0 mi SW 15.0 mph - 0.00 in Rain Light Rain
4:53 PM 73.9 °F - 57.0 °F 55% 30.02 in 10.0 mi SW 8.1 mph - 0.00 in   Partly Cloudy
5:53 PM 73.9 °F - 55.0 °F 52% 30.01 in 10.0 mi SW 11.5 mph - N/A   Mostly Cloudy
6:53 PM 75.9 °F - 59.0 °F 56% 30.00 in 10.0 mi SSW 11.5 mph - N/A   Clear
7:53 PM 73.9 °F - 59.0 °F 59% 29.99 in 10.0 mi SSW 9.2 mph - N/A   Scattered Clouds
8:53 PM 71.1 °F - 60.1 °F 68% 29.99 in 10.0 mi South 6.9 mph - N/A   Mostly Cloudy
9:53 PM 66.9 °F - 61.0 °F 81% 30.01 in 10.0 mi South 8.1 mph - N/A   Clear
10:53 PM 66.0 °F - 61.0 °F 84% 30.03 in 10.0 mi SSW 3.5 mph - N/A   Clear
11:53 PM 66.9 °F - 61.0 °F 81% 30.02 in 10.0 mi SE 4.6 mph - N/A   Clear